Regional Weather Roundup
Issued by NWS Sioux Falls, SD

Home | Current Version | Previous Version | Graphics & Text | Print | Product List | Glossary Off
Versions: 1 2 3 4 5 6 7 8 9 10 11 12 13 14 15 16 17 18 19 20 21 22 23 24 25 26 27 28 29 30 31 32 33 34 35 36 37 38 39 40 41 42 43 44 45 46 47 48 49 50

161
ASUS43 KFSD 201802
RWRFSD

WEATHER ROUNDUP FOR SE SOUTH DAKOTA/SW MINNESOTA/NW IOWA
NATIONAL WEATHER SERVICE SIOUX FALLS SD
1200 PM CST TUE FEB 20 2018

NOTE: "FAIR" INDICATES FEW OR NO CLOUDS BELOW 12,000 FEET WITH NO
SIGNIFICANT WEATHER AND OR OBSTRUCTIONS TO VISIBILITY.


SDZ038>040-050-052>070-201900-
SOUTHEAST SOUTH DAKOTA

CITY           SKY/WX    TMP DP  RH WIND       PRES   REMARKS
BROOKINGS      PTSUNNY    7   1  76 NW22      30.04R WCI -14
CHAMBERLAIN    FAIR       9   2  75 W18       30.19R WCI -10
6HR MIN TEMP:   5; 6HR MAX TEMP:   9;

HURON          FAIR      10   3  73 NW21      30.16R WCI  -9
6HR MIN TEMP:   4; 6HR MAX TEMP:  10; 6HR PCP:  0.01;

MADISON        FLURRIES   7   5  92 NW25      30.06R WCI -15
MITCHELL       FLURRIES  10   3  73 NW21      30.17R WCI  -9
6HR MIN TEMP:   4; 6HR MAX TEMP:  10; 6HR PCP: TRACE;

SIOUX FALLS    PTSUNNY    9   2  73 NW20G28   30.09R WCI -10
6HR MIN TEMP:   6; 6HR MAX TEMP:   9; 6HR PCP: TRACE;

WINNER         FAIR       8  -1  66 NW18      30.18R WCI -11
YANKTON        FAIR       9   3  77 NW25      30.14S HAZE    WCI -12
$$

MNZ071-072-080-081-089-090-097-098-201900-
SOUTHWEST MINNESOTA

CITY           SKY/WX    TMP DP  RH WIND       PRES   REMARKS
FAIRMONT       FLURRIES  16  10  77 NW23G29   30.00R WCI  -2
JACKSON        CLOUDY    12   7  79 W18       29.99F WCI  -5
LUVERNE        PTSUNNY   10   3  72 NW17G23   30.07R WCI  -7
MARSHALL       FLURRIES   9   3  77 NW24      30.04R WCI -12
6HR MIN TEMP:   6; 6HR MAX TEMP:   9; 6HR PCP: TRACE;

MONTEVIDEO     CLOUDY    12   5  73 N18       30.04R WCI  -5
PIPESTONE      FAIR       9   1  72 NW15G24   30.01S WCI  -8
REDWOOD FALLS  PTSUNNY   13   7  77 W21       30.02R WCI  -5
TRACY          FAIR      10   6  81 NW16      30.04R WCI  -7
WINDOM         CLOUDY    12  -2  52 CALM      30.01R HAZE
WORTHINGTON    FAIR      13   6  74 NW20      30.02R WCI  -5
$$

IAZ001>003-012>014-020>022-031-032-NEZ013-014-SDZ071-201900-
NORTHWEST IOWA

CITY           SKY/WX    TMP DP  RH WIND       PRES   REMARKS
CHEROKEE       FLURRIES  14  10  84 NW12G18   30.07R WCI   0
DENISON        FLURRIES  16  12  86 NW20G28   30.08S WCI  -1
ESTHERVILLE    CLOUDY    14   9  80 NW24      30.00F WCI  -5
LE MARS        PTSUNNY   12   5  73 NW17      30.10R WCI  -5
ORANGE CITY    FAIR      12   9  85 NW16      30.05S WCI  -4
SHELDON        PTSUNNY   12   7  79 MISG      30.03S
SIOUX CITY     FAIR      12   5  73 NW22      30.11R WCI  -7
6HR MIN TEMP:   9; 6HR MAX TEMP:  15; 6HR PCP: TRACE;

SPENCER        FLURRIES  16  10  77 NW18G25   30.02S WCI   0
6HR MIN TEMP:  14; 6HR MAX TEMP:  17;

STORM LAKE     FLURRIES  16  10  79 NW22      30.02R WCI  -2
$$

ABBREVIATIONS USED IN REMARKS
   TC - TEMPERATURE IN CELSIUS
  WCI - WIND CHILL INDEX
   HX - HEAT INDEX
  VSB - VISIBILITY





USA.gov is the U.S. government's official web portal to all federal, state and local government web resources and services.